Comanche, TX

6:53 PM CST on December 07, 2016 (GMT -0600)
Comanche

Weather History for KMKN - December, 2013

Change the Weather History Date:

Thursday, December 26, 2013

  Actual Average (KSEP) Record (KSEP)
Temperature  
Mean Temperature 41 °F -  
Max Temperature 52 °F 52 °F 82 °F (2005)
Min Temperature 30 °F 30 °F 14 °F (1983)
Degree Days  
Heating Degree Days 24    
Moisture  
Dew Point 28 °F    
Average Humidity 66    
Maximum Humidity 96    
Minimum Humidity 34    
Precipitation  
Precipitation 0.00 in - - ()
Sea Level Pressure  
Sea Level Pressure 30.38 in    
Wind  
Wind Speed 4 mph (NW)    
Max Wind Speed 7 mph    
Max Gust Speed -    
Visibility 10 miles    
Events      
Averages and records for this station are not official NWS values.
T = Trace of Precipitation, MM = Missing Value Source: NWS Daily Summary

Daily Weather History Graph

Daily Weather History Graph

Search for Another Location

Airport or City:

Trip Planner

Search our weather history database for the weather conditions in past years. The results will help you decide how hot, cold, wet, or windy it might be!

Date:

Astronomy

Dec. 26, 2013 Rise Set
Actual Time 7:33 AM CST 5:37 PM CST
Civil Twilight 7:06 AM CST 6:04 PM CST
Nautical Twilight 6:35 AM CST 6:34 PM CST
Astronomical Twilight 6:05 AM CST 7:04 PM CST
Moon 1:18 AM CST (12/26) 12:59 PM CST (12/26)
Length of Visible Light 10h 58m
Length of Day
10h 04m
Last Quarter, 38% of the Moon is Illuminated
Dec 26
Last Quarter
Jan 1
New
Jan 7
First Quarter
Jan 15
Full
Jan 23
Last Quarter

Hourly Weather History & Observations

Time (CST) Temp. Windchill Dew Point Humidity Pressure Visibility Wind Dir Wind Speed Gust Speed Precip Events Conditions
12:15 AM 34.7 °F 29.6 °F 32.2 °F 91% 30.42 in 7.0 mi NW 5.8 mph - N/A   Clear
12:35 AM 34.3 °F 30.2 °F 32.0 °F 91% 30.42 in 7.0 mi NW 4.6 mph - N/A   Clear
12:55 AM 33.3 °F 27.9 °F 32.0 °F 95% 30.41 in 7.0 mi NW 5.8 mph - N/A   Clear
1:15 AM 32.9 °F 28.5 °F 31.8 °F 96% 30.41 in 7.0 mi NW 4.6 mph - N/A   Clear
1:35 AM 33.4 °F - 31.6 °F 93% 30.42 in 10.0 mi Calm Calm - N/A   Clear
1:55 AM 32.9 °F 29.8 °F 31.5 °F 94% 30.41 in 7.0 mi WNW 3.5 mph - N/A   Clear
2:15 AM 32.7 °F 28.3 °F 31.1 °F 94% 30.41 in 7.0 mi NW 4.6 mph - N/A   Clear
2:35 AM 32.7 °F 27.3 °F 30.9 °F 93% 30.41 in 10.0 mi NW 5.8 mph - N/A   Clear
2:55 AM 32.4 °F 27.9 °F 30.7 °F 94% 30.41 in 10.0 mi NW 4.6 mph - N/A   Clear
3:15 AM 32.0 °F 26.4 °F 30.6 °F 94% 30.41 in 10.0 mi NW 5.8 mph - N/A   Clear
3:35 AM 32.0 °F 27.5 °F 30.6 °F 94% 30.41 in 7.0 mi NW 4.6 mph - N/A   Clear
3:55 AM 31.8 °F 27.3 °F 30.2 °F 94% 30.41 in 7.0 mi NW 4.6 mph - N/A   Clear
4:15 AM 31.8 °F 28.5 °F 30.2 °F 94% 30.40 in 7.0 mi NW 3.5 mph - N/A   Clear
4:35 AM 31.8 °F 27.3 °F 30.2 °F 94% 30.40 in 10.0 mi NW 4.6 mph - N/A   Clear
4:55 AM 32.0 °F 26.4 °F 30.2 °F 93% 30.38 in 10.0 mi NW 5.8 mph - N/A   Clear
5:15 AM 32.0 °F 27.5 °F 30.2 °F 93% 30.39 in 10.0 mi NW 4.6 mph - N/A   Clear
5:35 AM 31.8 °F 27.3 °F 30.2 °F 94% 30.39 in 10.0 mi NW 4.6 mph - N/A   Clear
5:55 AM 31.1 °F 27.7 °F 29.8 °F 95% 30.39 in 10.0 mi NW 3.5 mph - N/A   Clear
6:15 AM 30.7 °F 27.3 °F 29.3 °F 94% 30.40 in 10.0 mi WNW 3.5 mph - N/A   Clear
6:35 AM 30.2 °F 26.7 °F 29.3 °F 96% 30.40 in 7.0 mi WNW 3.5 mph - N/A   Clear
6:55 AM 31.1 °F 26.4 °F 29.8 °F 95% 30.40 in 10.0 mi NW 4.6 mph - N/A   Clear
7:15 AM 31.1 °F 24.5 °F 29.5 °F 94% 30.40 in 10.0 mi NW 6.9 mph - N/A   Clear
7:35 AM 30.7 °F 24.9 °F 29.3 °F 94% 30.41 in 10.0 mi NW 5.8 mph - N/A   Clear
7:55 AM 30.2 °F 24.3 °F 28.9 °F 95% 30.41 in 7.0 mi NW 5.8 mph - N/A   Clear
8:15 AM 30.7 °F 26.0 °F 29.3 °F 94% 30.41 in 10.0 mi NW 4.6 mph - N/A   Clear
8:35 AM 32.0 °F 27.5 °F 30.0 °F 92% 30.42 in 10.0 mi NW 4.6 mph - N/A   Clear
8:55 AM 33.1 °F 30.0 °F 30.2 °F 89% 30.43 in 10.0 mi NW 3.5 mph - N/A   Clear
9:15 AM 34.7 °F 30.6 °F 31.1 °F 87% 30.43 in 10.0 mi NNW 4.6 mph - N/A   Clear
9:35 AM 36.0 °F 32.1 °F 31.5 °F 84% 30.43 in 10.0 mi NNW 4.6 mph - N/A   Clear
9:55 AM 37.4 °F 32.8 °F 32.0 °F 81% 30.44 in 10.0 mi North 5.8 mph - N/A   Clear
10:15 AM 39.0 °F 35.7 °F 32.0 °F 76% 30.43 in 10.0 mi North 4.6 mph - N/A   Clear
10:35 AM 40.5 °F 37.3 °F 32.0 °F 72% 30.43 in 10.0 mi North 4.6 mph - N/A   Clear
10:55 AM 41.7 °F 39.8 °F 30.7 °F 65% 30.43 in 10.0 mi North 3.5 mph - N/A   Clear
11:15 AM 43.2 °F 41.5 °F 30.0 °F 60% 30.43 in 10.0 mi North 3.5 mph - N/A   Clear
11:35 AM 44.2 °F 41.8 °F 28.0 °F 53% 30.42 in 10.0 mi North 4.6 mph - N/A   Clear
11:55 AM 45.7 °F - 28.0 °F 50% 30.41 in 10.0 mi Calm Calm - N/A   Clear
12:15 PM 47.1 °F - 26.6 °F 45% 30.40 in 10.0 mi North 4.6 mph - N/A   Clear
12:35 PM 47.3 °F - 26.1 °F 44% 30.38 in 10.0 mi North 5.8 mph - N/A   Clear
12:55 PM 47.8 °F - 26.2 °F 43% 30.37 in 10.0 mi North 3.5 mph - N/A   Clear
1:15 PM 48.6 °F - 26.4 °F 42% 30.36 in 10.0 mi North 3.5 mph - N/A   Clear
1:35 PM 49.8 °F - 25.2 °F 38% 30.35 in 10.0 mi North 4.6 mph - N/A   Clear
1:55 PM 50.9 °F - 23.4 °F 34% 30.34 in 10.0 mi Calm Calm - N/A   Clear
2:15 PM 51.1 °F - 25.3 °F 37% 30.34 in 10.0 mi North 3.5 mph - N/A   Clear
2:35 PM 51.6 °F - 25.7 °F 37% 30.33 in 10.0 mi NNE 3.5 mph - N/A   Clear
2:55 PM 51.4 °F - 26.4 °F 38% 30.32 in 10.0 mi North 4.6 mph - N/A   Clear
3:15 PM 52.0 °F - 24.6 °F 35% 30.32 in 10.0 mi Calm Calm - N/A   Clear
3:35 PM 51.8 °F - 25.2 °F 36% 30.33 in 10.0 mi Calm Calm - N/A   Clear
3:55 PM 51.4 °F - 24.8 °F 35% 30.32 in 10.0 mi Calm Calm - N/A   Clear
4:15 PM 52.2 °F - 25.2 °F 35% 30.33 in 10.0 mi Calm Calm - N/A   Clear
4:35 PM 51.8 °F - 25.2 °F 36% 30.33 in 10.0 mi Calm Calm - N/A   Clear
4:55 PM 51.4 °F - 25.5 °F 37% 30.34 in 10.0 mi Calm Calm - N/A   Clear
5:15 PM 51.1 °F - 25.0 °F 36% 30.34 in 10.0 mi Calm Calm - N/A   Clear
5:35 PM 49.6 °F - 25.9 °F 40% 30.34 in 10.0 mi Calm Calm - N/A   Clear
5:55 PM 49.5 °F - 25.2 °F 39% 30.34 in 10.0 mi Calm Calm - N/A   Clear
6:15 PM 48.2 °F - 25.5 °F 41% 30.34 in 10.0 mi Calm Calm - N/A   Clear
6:35 PM 48.2 °F - 25.5 °F 41% 30.34 in 10.0 mi Calm Calm - N/A   Clear
6:55 PM 48.4 °F - 25.0 °F 40% 30.35 in 10.0 mi Calm Calm - N/A   Clear
7:15 PM 48.0 °F - 25.0 °F 41% 30.35 in 10.0 mi Calm Calm - N/A   Clear
7:35 PM 46.8 °F - 25.2 °F 43% 30.37 in 10.0 mi Calm Calm - N/A   Clear
7:55 PM 45.7 °F - 24.8 °F 44% 30.36 in 10.0 mi Calm Calm - N/A   Clear
8:15 PM 46.0 °F - 24.4 °F 43% 30.37 in 10.0 mi Calm Calm - N/A   Clear
8:35 PM 45.7 °F - 24.6 °F 44% 30.37 in 10.0 mi Calm Calm - N/A   Clear
8:55 PM 44.6 °F - 24.3 °F 45% 30.37 in 10.0 mi Calm Calm - N/A   Clear
9:15 PM 43.7 °F - 24.4 °F 47% 30.38 in 10.0 mi Calm Calm - N/A   Clear
9:35 PM 41.7 °F 38.0 °F 24.3 °F 50% 30.37 in 10.0 mi South 5.8 mph - N/A   Clear
9:55 PM 39.2 °F 35.9 °F 25.3 °F 58% 30.38 in 10.0 mi SSW 4.6 mph - N/A   Clear
10:15 PM 40.5 °F 38.4 °F 25.3 °F 55% 30.38 in 10.0 mi South 3.5 mph - N/A   Clear
10:35 PM 39.2 °F 35.0 °F 25.7 °F 58% 30.38 in 10.0 mi SSW 5.8 mph - N/A   Clear
10:55 PM 40.1 °F 38.0 °F 25.7 °F 56% 30.38 in 10.0 mi SSW 3.5 mph - N/A   Clear
11:15 PM 41.0 °F - 25.7 °F 55% 30.38 in 10.0 mi Calm Calm - N/A   Clear
11:35 PM 32.9 °F 28.5 °F 26.1 °F 76% 30.38 in 10.0 mi North 4.6 mph - N/A   Clear
11:55 PM 36.3 °F - 26.1 °F 66% 30.38 in 10.0 mi Calm Calm - N/A   Clear